STARLINK-1958, 47559

Orbit data source: Space-Track

STARLINK-1958, 47559 is a payload satellite owned by SpaceX/Seattle (US) in LEO that was launched on Thu, 04 Feb 2021 UTC via an FALCON 9 launch vehicle from the Air Force Eastern Test Range (AFETR). Payload-class satellites include a variety of spacecraft equipped with specific instruments for various scientific and technological missions. These include communications satellites like Starlink; space stations such as the ISS; scientific satellites like the Hubble; Earth observation satellites from companies like Planet Labs, Umbra, and HawkEye 360; GPS; miniature CubeSats for education and research; and military/defense satellites.

Not visible in the next 10 days
Identifier
47559, 2021-009M
Orbit
LEO
Country
Flag of USUS
Related business
Manufacturer
SpaceX/Seattle
Mission
Partially operational Commercial Communications
Bus & Motor
STARLINK, Unknown motor
Mass
260 kg wet, ~248 kg dry
Launch date (UTC)
2021-02-04 (5 years ago)
Launch vehicle
FALCON 9
Launch site
Air Force Eastern Test Range (AFETR)
Object type
Payload
Rocket body
Debris
Shape & HBR
Box + 1 Pan, 10.1 m
Radar Cross Section
13.562 m², Large (>1 m²)

Expand to show TLE details & history
Last TLE update: 5 hours ago

TLE from 5 hours ago
0 STARLINK-1958
1 47559U 21009M   26173.22347603  .07068616  12305-4  60046-3 0  9996
2 47559  53.0153 154.0464 0006947 258.6081 101.4185 16.38652460298201
Epoch: 2026-06-22T05:21Z
TLE epoch observation values (Epoch: 2026-06-22T05:21:48.328Z)
Latitude
0.00001°
Longitude
163.18256°
Altitude
171.218 km
Speed
7.804 km/s
True Right ascension
10h 16m 11s
True Declination
0° 00' 00"
Sunlit
Object was in daylight at epoch
Visualization orbit readout
Latitude
Unknown
Longitude
Unknown
Altitude
Unknown
Speed
Unknown
Apparent Right ascension
Unknown
Apparent Declination
Unknown
Sunlit
N/A
Visualization observer readout
Local Sidereal Time
21:26:51
Azimuth
Unknown
Elevation
Unknown
Doppler factor
Unknown
Orbital elements
Apogee altitude
174.231 km
Perigee altitude
165.133 km
Semi-major axis
6,547.819 km
Eccentricity
0.00069
Inclination
53.0153°
RAAN
154.0464°
Arg. of periapsis
258.6081°
True anomaly
101.49652°
Mean anomaly
101.4185°
Eccentric anomaly
101.45751°
Mean motion
4.09636 °/min
Orbital period
87.88 mins
BSTAR
0.00060046
Loading maneuver chart data...
Computing Atmospheric mass density...

Documentation

Showing up to 5 results
|